Year,Month,Day,Hour,Minute,Value (Times are PST for temperature in C)
2006,12,15,00,00,6.90
2006,12,15,00,01,6.90
2006,12,15,00,02,6.90
2006,12,15,00,03,6.90
2006,12,15,00,04,6.90
2006,12,15,00,05,6.90
2006,12,15,00,06,6.90
2006,12,15,00,07,6.90
2006,12,15,00,08,6.90
2006,12,15,00,09,6.90
2006,12,15,00,10,7.00
2006,12,15,00,11,7.00
2006,12,15,00,12,7.00
2006,12,15,00,13,7.00
2006,12,15,00,14,7.00
2006,12,15,00,15,7.00
2006,12,15,00,16,7.10
2006,12,15,00,17,7.10
2006,12,15,00,18,7.10
2006,12,15,00,19,7.10
2006,12,15,00,20,7.10
2006,12,15,00,21,7.10
2006,12,15,00,22,7.10
2006,12,15,00,23,7.10
2006,12,15,00,24,7.10
2006,12,15,00,25,7.10
2006,12,15,00,26,7.10
2006,12,15,00,27,7.10
2006,12,15,00,28,7.10
2006,12,15,00,29,7.10
2006,12,15,00,30,7.10
2006,12,15,00,31,7.10
2006,12,15,00,32,7.10
2006,12,15,00,33,7.10
2006,12,15,00,34,7.10
2006,12,15,00,35,7.20
2006,12,15,00,36,7.20
2006,12,15,00,37,7.20
2006,12,15,00,38,7.30
2006,12,15,00,39,7.30
2006,12,15,00,40,7.30
2006,12,15,00,41,7.30
2006,12,15,00,42,7.30
2006,12,15,00,43,7.30
2006,12,15,00,44,7.30
2006,12,15,00,45,7.30
2006,12,15,00,46,7.30
2006,12,15,00,47,7.30
2006,12,15,00,48,7.30
2006,12,15,00,49,7.30
2006,12,15,00,50,7.30
2006,12,15,00,51,7.30
2006,12,15,00,52,7.40
2006,12,15,00,53,7.40
2006,12,15,00,54,7.50
2006,12,15,00,55,7.50
2006,12,15,00,56,7.50
2006,12,15,00,57,7.50
2006,12,15,00,58,7.60
2006,12,15,00,59,7.60
2006,12,15,01,00,7.60
2006,12,15,01,01,7.60
2006,12,15,01,02,7.60
2006,12,15,01,03,7.60
2006,12,15,01,04,7.60
2006,12,15,01,05,7.60
2006,12,15,01,06,7.60
2006,12,15,01,07,7.60
2006,12,15,01,08,7.60
2006,12,15,01,09,7.50
2006,12,15,01,10,7.50
2006,12,15,01,11,7.40
2006,12,15,01,12,7.40
2006,12,15,01,13,7.30
2006,12,15,01,14,7.30
2006,12,15,01,15,7.20
2006,12,15,01,16,7.20
2006,12,15,01,17,7.10
2006,12,15,01,18,7.00
2006,12,15,01,19,7.00
2006,12,15,01,20,6.90
2006,12,15,01,21,6.90
2006,12,15,01,22,6.90
2006,12,15,01,23,6.80
2006,12,15,01,24,6.80
2006,12,15,01,25,6.80
2006,12,15,01,26,6.80
2006,12,15,01,27,6.70
2006,12,15,01,28,6.80
2006,12,15,01,29,6.80
2006,12,15,01,30,6.70
2006,12,15,01,31,6.70
2006,12,15,01,32,6.70
2006,12,15,01,33,6.70
2006,12,15,01,34,6.70
2006,12,15,01,35,6.80
2006,12,15,01,36,6.80
2006,12,15,01,37,6.70
2006,12,15,01,38,6.70
2006,12,15,01,39,6.60
2006,12,15,01,40,6.70
2006,12,15,01,41,6.70
2006,12,15,01,42,6.80
2006,12,15,01,43,6.80
2006,12,15,01,44,6.80
2006,12,15,01,45,6.80
2006,12,15,01,46,6.80
2006,12,15,01,47,6.80
2006,12,15,01,48,6.80
2006,12,15,01,49,6.80
2006,12,15,01,50,6.80
2006,12,15,01,51,6.80
2006,12,15,01,52,6.70
2006,12,15,01,53,6.70
2006,12,15,01,54,6.60
2006,12,15,01,55,6.60
2006,12,15,01,56,6.60
2006,12,15,01,57,6.60
2006,12,15,01,58,6.60
2006,12,15,01,59,6.60
2006,12,15,02,00,6.60
2006,12,15,02,01,6.60
2006,12,15,02,02,6.50
2006,12,15,02,03,6.40
2006,12,15,02,04,6.40
2006,12,15,02,05,6.40
2006,12,15,02,06,6.40
2006,12,15,02,07,6.40
2006,12,15,02,08,6.40
2006,12,15,02,09,6.40
2006,12,15,02,10,6.40
2006,12,15,02,11,6.40
2006,12,15,02,12,6.40
2006,12,15,02,13,6.40
2006,12,15,02,14,6.30
2006,12,15,02,15,6.30
2006,12,15,02,16,6.30
2006,12,15,02,17,6.30
2006,12,15,02,18,6.30
2006,12,15,02,19,6.30
2006,12,15,02,20,6.40
2006,12,15,02,21,6.40
2006,12,15,02,22,6.40
2006,12,15,02,23,6.40
2006,12,15,02,24,6.40
2006,12,15,02,25,6.40
2006,12,15,02,26,6.40
2006,12,15,02,27,6.40
2006,12,15,02,28,6.40
2006,12,15,02,29,6.40
2006,12,15,02,30,6.40
2006,12,15,02,33,6.60
2006,12,15,02,34,6.60
2006,12,15,02,35,6.60
2006,12,15,02,36,6.60
2006,12,15,02,37,6.50
2006,12,15,02,38,6.40
2006,12,15,02,39,6.40
2006,12,15,02,40,6.40
2006,12,15,02,41,6.30
2006,12,15,02,42,6.30
2006,12,15,02,43,6.30
2006,12,15,02,44,6.20
2006,12,15,02,45,6.20
2006,12,15,02,46,6.30
2006,12,15,02,47,6.30
2006,12,15,02,48,6.30
2006,12,15,02,49,6.30
2006,12,15,02,50,6.30
2006,12,15,02,51,6.30
2006,12,15,02,52,6.30
2006,12,15,02,53,6.30
2006,12,15,02,54,6.30
2006,12,15,02,55,6.30
2006,12,15,02,56,6.30
2006,12,15,02,57,6.30
2006,12,15,02,58,6.30
2006,12,15,03,01,6.30
2006,12,15,03,02,6.30
2006,12,15,03,03,6.30
2006,12,15,03,04,6.30
2006,12,15,03,05,6.40
2006,12,15,03,09,6.40
2006,12,15,03,10,6.40
2006,12,15,17,25,3.60
2006,12,15,17,26,3.60
2006,12,15,17,27,3.60
2006,12,15,17,28,3.50
2006,12,15,17,29,3.40
2006,12,15,17,30,3.30
2006,12,15,17,31,3.30
2006,12,15,17,32,3.30
2006,12,15,17,33,3.30
2006,12,15,17,34,3.30
2006,12,15,17,35,3.30
2006,12,15,17,36,3.30
2006,12,15,17,37,3.30
2006,12,15,20,56,2.20
2006,12,15,20,57,2.20
2006,12,15,20,58,2.20
2006,12,15,20,59,2.30
2006,12,15,21,00,2.30
2006,12,15,21,01,2.30
2006,12,15,21,02,2.30
2006,12,15,21,03,2.30
2006,12,15,21,04,2.30
2006,12,15,21,05,2.30
2006,12,15,21,06,2.30
2006,12,15,21,07,2.30
2006,12,15,21,08,2.30
2006,12,15,21,09,2.30
2006,12,15,21,10,2.30
2006,12,15,21,11,2.30
2006,12,15,21,12,2.30
2006,12,15,21,13,2.30
2006,12,15,21,14,2.30
2006,12,15,21,15,2.30
2006,12,15,21,16,2.30
2006,12,15,21,17,2.30
2006,12,15,21,18,2.30
2006,12,15,21,19,2.30
2006,12,15,21,20,2.30
2006,12,15,21,21,2.30
2006,12,15,21,22,2.30
2006,12,15,21,23,2.30
2006,12,15,21,24,2.30
2006,12,15,21,25,2.30
2006,12,15,21,26,2.30
2006,12,15,21,27,2.30
2006,12,15,21,28,2.30
2006,12,15,21,29,2.30
2006,12,15,21,30,2.30
2006,12,15,21,31,2.30
2006,12,15,21,32,2.30
2006,12,15,21,33,2.30
2006,12,15,21,34,2.30
2006,12,15,21,35,2.30
2006,12,15,21,36,2.40
2006,12,15,21,37,2.40
2006,12,15,21,38,2.40
2006,12,15,21,39,2.40
2006,12,15,21,40,2.40
2006,12,15,21,41,2.40
2006,12,15,21,42,2.50
2006,12,15,21,43,2.50
2006,12,15,21,44,2.50
2006,12,15,21,45,2.50
2006,12,15,21,46,2.50
2006,12,15,21,47,2.50
2006,12,15,21,48,2.50
2006,12,15,21,49,2.50
2006,12,15,21,50,2.50
2006,12,15,21,51,2.50
2006,12,15,21,52,2.50
2006,12,15,21,53,2.50
2006,12,15,21,54,2.60
2006,12,15,21,55,2.60
2006,12,15,21,56,2.60
2006,12,15,21,57,2.60
2006,12,15,21,58,2.60
2006,12,15,21,59,2.70
2006,12,15,22,00,2.70
2006,12,15,22,01,2.70
2006,12,15,22,02,2.70
2006,12,15,22,03,2.60
2006,12,15,22,04,2.60
2006,12,15,22,05,2.60
2006,12,15,22,06,2.60
2006,12,15,22,07,2.60
2006,12,15,22,08,2.60
2006,12,15,22,09,2.60
2006,12,15,22,10,2.60
2006,12,15,22,11,2.60
2006,12,15,22,12,2.60
2006,12,15,22,13,2.60
2006,12,15,22,14,2.50
2006,12,15,22,15,2.50
2006,12,15,22,16,2.50
2006,12,15,22,17,2.50
2006,12,15,22,18,2.50
2006,12,15,22,19,2.50
2006,12,15,22,20,2.50
2006,12,15,22,21,2.40
2006,12,15,22,22,2.40
2006,12,15,22,23,2.40
2006,12,15,22,24,2.30
2006,12,15,22,25,2.30
2006,12,15,22,26,2.30
2006,12,15,22,27,2.30
2006,12,15,22,28,2.30
2006,12,15,22,29,2.30
2006,12,15,22,30,2.20
2006,12,15,22,31,2.20
2006,12,15,22,32,2.20
2006,12,15,22,33,2.20
2006,12,15,22,34,2.20
2006,12,15,22,35,2.20
2006,12,15,22,36,2.20
2006,12,15,22,37,2.20
2006,12,15,22,38,2.20
2006,12,15,22,39,2.20
2006,12,15,22,40,2.20
2006,12,15,22,41,2.20
2006,12,15,22,42,2.30
2006,12,15,22,43,2.30
2006,12,15,22,44,2.30
2006,12,15,22,45,2.30
2006,12,15,22,46,2.30
2006,12,15,22,47,2.20
2006,12,15,22,48,2.20
2006,12,15,22,49,2.20
2006,12,15,22,50,2.20
2006,12,15,22,51,2.20
2006,12,15,22,52,2.20
2006,12,15,22,53,2.20
2006,12,15,22,54,2.10
2006,12,15,22,55,2.10
2006,12,15,22,56,2.10
2006,12,15,22,57,2.10
2006,12,15,22,58,2.10
2006,12,15,22,59,2.10
2006,12,15,23,00,2.10
2006,12,15,23,01,2.10
2006,12,15,23,02,2.20
2006,12,15,23,03,2.20
2006,12,15,23,04,2.20
2006,12,15,23,05,2.20
2006,12,15,23,06,2.20
2006,12,15,23,07,2.20
2006,12,15,23,08,2.20
2006,12,15,23,09,2.20
2006,12,15,23,10,2.20
2006,12,15,23,11,2.30
2006,12,15,23,12,2.30
2006,12,15,23,13,2.30
2006,12,15,23,14,2.30
2006,12,15,23,15,2.30
2006,12,15,23,16,2.30
2006,12,15,23,17,2.30
2006,12,15,23,18,2.30
2006,12,15,23,19,2.30
2006,12,15,23,20,2.30
2006,12,15,23,21,2.30
2006,12,15,23,22,2.20
2006,12,15,23,23,2.20
2006,12,15,23,24,2.20
2006,12,15,23,25,2.20
2006,12,15,23,26,2.20
2006,12,15,23,27,2.20
2006,12,15,23,28,2.10
2006,12,15,23,29,2.10
2006,12,15,23,30,2.00
2006,12,15,23,31,2.00
2006,12,15,23,32,1.90
2006,12,15,23,33,1.90
2006,12,15,23,34,1.80
2006,12,15,23,35,1.80
2006,12,15,23,36,1.80
2006,12,15,23,37,1.80
2006,12,15,23,38,1.80
2006,12,15,23,39,1.80
2006,12,15,23,40,1.80
2006,12,15,23,41,1.80
2006,12,15,23,42,1.80
2006,12,15,23,43,1.80
2006,12,15,23,44,1.90
2006,12,15,23,45,1.90
2006,12,15,23,46,1.90
2006,12,15,23,47,2.00
2006,12,15,23,48,2.00
2006,12,15,23,49,2.00
2006,12,15,23,50,2.10
2006,12,15,23,51,2.10
2006,12,15,23,52,2.10
2006,12,15,23,53,2.10
2006,12,15,23,54,2.10
2006,12,15,23,55,2.20
2006,12,15,23,56,2.20
2006,12,15,23,57,2.20
2006,12,15,23,58,2.20
2006,12,15,23,59,2.20
